�N����,����,�~����,�C��,���x,�C��,����,���ϕ���,�ő�u�ԕ���,�ő厞����,���˗�,�I�_���x,�n�����x,�ő啗���N��,DTYPE
"18/03/14","00:10",0.0,7.5,91.6,1015.9,306.2,1.5,2.8,337.4,0.00,6.3,9.4,"00:01:52",1
"18/03/14","00:20",0.0,7.3,91.8,1016.1,309.8,1.8,2.6,343.4,0.00,6.1,9.3,"00:13:52",1
"18/03/14","00:30",0.0,7.1,92.3,1016.1,301.6,1.6,2.0,346.1,0.00,6.0,9.2,"00:22:08",1
"18/03/14","00:40",0.0,6.9,92.5,1016.1,295.8,1.0,2.4,315.2,0.00,5.8,9.0,"00:34:56",1
"18/03/14","00:50",0.0,6.8,93.5,1015.9,310.4,1.6,2.7,320.1,0.00,5.9,9.3,"00:48:56",1
"18/03/14","01:00",0.0,6.8,94.2,1016.4,303.7,2.1,2.7,318.7,0.00,6.0,9.1,"00:58:00",1
"18/03/14","01:10",0.0,7.0,94.1,1016.6,324.1,1.5,2.8,322.3,0.00,6.2,9.1,"01:06:00",1
"18/03/14","01:20",0.0,6.9,95.3,1016.4,301.2,1.7,2.4,312.4,0.00,6.2,9.0,"01:11:28",1
"18/03/14","01:30",0.0,6.8,94.8,1016.1,306.7,1.6,2.4,313.9,0.00,6.1,9.0,"01:28:48",1
"18/03/14","01:40",0.0,6.6,95.2,1016.1,296.8,1.7,2.1,318.1,0.00,5.9,8.9,"01:32:40",1
"18/03/14","01:50",0.0,7.1,96.3,1016.4,306.8,2.1,2.8,320.6,0.00,6.6,9.1,"01:48:24",1
"18/03/14","02:00",0.0,7.5,96.0,1016.4,310.4,1.8,2.6,317.9,0.00,6.9,8.8,"01:50:08",1
"18/03/14","02:10",0.0,7.6,95.8,1016.6,312.3,1.7,2.6,317.9,0.00,7.0,8.8,"02:01:44",1
"18/03/14","02:20",0.0,7.8,95.7,1016.1,306.1,1.1,2.2,266.7,0.00,7.2,8.7,"02:10:32",1
"18/03/14","02:30",0.0,7.2,94.5,1016.6,321.1,2.0,2.8,320.1,0.00,6.4,8.8,"02:29:12",1
"18/03/14","02:40",0.0,6.8,95.8,1016.6,303.9,1.7,3.2,322.6,0.00,6.2,8.7,"02:30:16",1
"18/03/14","02:50",0.0,7.0,96.2,1016.4,307.1,1.2,2.1,320.6,0.00,6.5,8.7,"02:42:16",1
"18/03/14","03:00",0.0,6.8,96.2,1016.8,309.1,1.8,2.5,319.8,0.00,6.3,8.5,"02:56:16",1
"18/03/14","03:10",0.0,7.0,96.4,1016.1,299.8,1.3,2.2,315.6,0.00,6.5,8.7,"03:06:56",1
"18/03/14","03:20",0.0,6.5,95.6,1016.6,310.1,1.8,2.8,324.5,0.00,5.9,8.7,"03:16:48",1
"18/03/14","03:30",0.0,6.5,97.4,1016.4,318.4,2.2,3.2,322.7,0.00,6.2,8.6,"03:25:46",1
"18/03/14","03:40",0.0,6.7,97.3,1016.4,292.6,1.5,2.1,319.9,0.00,6.3,8.6,"03:32:24",1
"18/03/14","03:50",0.0,6.5,97.2,1016.4,296.8,1.6,2.0,314.0,0.00,6.1,8.4,"03:46:32",1
"18/03/14","04:00",0.0,6.3,96.8,1016.4,310.4,1.7,2.7,321.5,0.00,5.9,8.4,"03:51:52",1
"18/03/14","04:10",0.0,6.0,97.3,1016.1,307.4,1.7,2.1,320.5,0.00,5.6,8.5,"04:06:00",1
"18/03/14","04:20",0.0,6.0,97.6,1016.4,311.1,2.0,2.4,318.4,0.00,5.7,8.2,"04:14:40",1
"18/03/14","04:30",0.0,5.9,97.7,1016.6,308.0,1.5,2.2,310.9,0.00,5.6,8.3,"04:20:24",1
"18/03/14","04:40",0.0,5.7,97.4,1016.4,299.5,1.2,2.2,309.6,0.00,5.4,8.3,"04:35:28",1
"18/03/14","04:50",0.0,5.5,98.2,1016.6,305.8,1.6,2.2,320.9,0.00,5.3,8.1,"04:45:46",1
"18/03/14","05:00",0.0,5.4,96.8,1016.4,314.8,1.8,2.4,318.8,0.00,5.0,8.2,"04:50:16",1
"18/03/14","05:10",0.0,5.6,98.4,1016.4,318.3,1.7,2.4,326.5,0.00,5.4,8.2,"05:05:12",1
"18/03/14","05:20",0.0,5.6,97.7,1016.6,299.5,1.6,2.4,308.9,0.00,5.3,8.0,"05:10:08",1
"18/03/14","05:30",0.0,5.6,98.4,1016.8,301.8,1.0,2.0,315.8,0.00,5.4,8.1,"05:21:04",1
"18/03/14","05:40",0.0,5.6,97.5,1016.8,309.6,1.6,2.4,317.3,0.00,5.3,8.1,"05:37:52",1
"18/03/14","05:50",0.0,5.4,98.7,1016.8,307.8,1.5,2.2,327.9,0.00,5.3,8.0,"05:40:16",1
"18/03/14","06:00",0.0,5.4,97.4,1016.4,315.0,1.7,2.5,325.2,0.00,5.1,7.9,"05:50:40",1
"18/03/14","06:10",0.0,5.2,98.8,1016.6,317.1,2.0,2.5,323.6,0.00,5.1,8.0,"06:06:34",1
"18/03/14","06:20",0.0,5.0,97.7,1017.3,287.0,0.6,1.2,308.9,0.00,4.7,8.0,"06:19:28",1
"18/03/14","06:30",0.0,5.1,99.1,1016.8,309.8,2.0,2.5,319.8,0.00,5.0,7.9,"06:25:20",1
"18/03/14","06:40",0.0,5.5,98.6,1017.1,315.0,2.2,2.9,324.2,0.00,5.3,7.8,"06:33:12",1
"18/03/14","06:50",0.0,5.9,98.8,1017.1,296.4,1.5,1.8,308.8,0.00,5.8,8.0,"06:42:40",1
"18/03/14","07:00",0.0,6.3,98.3,1017.5,289.4,1.2,1.4,304.4,0.00,6.1,7.8,"06:50:08",1
"18/03/14","07:10",0.0,6.7,97.8,1017.5,294.0,1.2,1.8,319.4,0.01,6.4,7.9,"07:07:36",1
"18/03/14","07:20",0.0,7.2,99.0,1017.8,302.2,1.5,2.0,318.8,0.02,7.1,7.7,"07:17:44",1
"18/03/14","07:30",0.0,7.9,98.2,1018.0,307.6,1.2,2.1,321.6,0.03,7.7,7.7,"07:22:40",1
"18/03/14","07:40",0.0,8.6,97.5,1018.2,285.1,0.3,0.9,293.7,0.05,8.3,8.2,"07:37:10",1
"18/03/14","07:50",0.0,9.3,97.7,1018.2,260.2,0.6,1.1,288.1,0.06,9.0,8.0,"07:45:28",1
"18/03/14","08:00",0.0,10.2,94.9,1018.2,325.1,1.0,2.1,341.6,0.08,9.5,8.2,"07:56:08",1
"18/03/14","08:10",0.0,10.4,91.9,1018.7,325.4,0.7,1.7,311.4,0.10,9.2,8.3,"08:02:24",1
"18/03/14","08:20",0.0,11.0,88.5,1018.5,280.3,0.3,1.1,300.2,0.13,9.2,8.4,"08:13:20",1
"18/03/14","08:30",0.0,11.9,85.8,1018.7,245.7,0.6,1.0,220.8,0.17,9.6,8.7,"08:22:24",1
"18/03/14","08:40",0.0,11.8,83.3,1019.0,149.5,0.6,1.3,133.5,0.20,9.1,8.6,"08:34:32",1
"18/03/14","08:50",0.0,12.7,82.0,1019.0,206.6,0.6,1.6,190.5,0.23,9.7,9.0,"08:43:20",1
"18/03/14","09:00",0.0,12.9,79.8,1019.4,206.2,0.6,1.2,117.9,0.25,9.5,9.1,"08:53:12",1
"18/03/14","09:10",0.0,13.2,77.9,1019.7,119.0,0.7,1.8,126.7,0.27,9.5,9.3,"09:01:28",1
"18/03/14","09:20",0.0,13.6,74.6,1019.7,85.8,0.6,1.8,111.4,0.30,9.2,9.6,"09:17:52",1
"18/03/14","09:30",0.0,14.3,71.7,1019.4,226.5,0.7,2.0,202.6,0.32,9.3,9.8,"09:29:12",1
"18/03/14","09:40",0.0,14.6,69.9,1019.7,218.7,0.7,1.4,192.2,0.34,9.2,10.0,"09:30:24",1
"18/03/14","09:50",0.0,14.9,69.4,1019.2,161.9,0.8,1.8,28.4,0.36,9.4,10.2,"09:40:16",1
"18/03/14","10:00",0.0,15.3,69.0,1019.2,205.5,1.3,3.1,210.2,0.39,9.7,10.5,"09:54:24",1
"18/03/14","10:10",0.0,15.5,69.1,1019.0,203.4,1.3,2.7,207.6,0.41,9.9,10.7,"10:07:36",1
"18/03/14","10:20",0.0,16.0,68.7,1019.2,180.0,1.5,3.7,120.6,0.42,10.3,10.8,"10:13:36",1
"18/03/14","10:30",0.0,16.0,67.3,1018.5,177.0,1.2,3.2,115.0,0.44,10.0,11.2,"10:25:36",1
"18/03/14","10:40",0.0,16.8,65.1,1018.5,157.9,1.2,2.8,130.2,0.45,10.3,11.6,"10:38:16",1
"18/03/14","10:50",0.0,16.9,64.2,1018.0,164.4,1.5,3.5,133.5,0.47,10.1,11.6,"10:43:28",1
"18/03/14","11:00",0.0,17.5,65.0,1018.5,176.4,1.7,3.6,200.4,0.48,10.9,11.9,"10:51:44",1
"18/03/14","11:10",0.0,17.8,63.5,1018.2,147.5,1.7,3.5,159.5,0.49,10.8,12.3,"11:08:56",1
"18/03/14","11:20",0.0,18.4,64.3,1018.0,159.5,1.7,3.6,124.7,0.50,11.6,12.4,"11:17:12",1
"18/03/14","11:30",0.0,18.4,61.5,1017.8,141.2,1.8,3.5,103.1,0.51,10.9,12.8,"11:23:52",1
"18/03/14","11:40",0.0,18.9,60.4,1017.3,157.8,1.7,3.1,173.5,0.52,11.1,12.9,"11:34:40",1
"18/03/14","11:50",0.0,19.5,59.2,1017.1,156.1,1.7,3.9,114.9,0.53,11.4,13.4,"11:49:20",1
"18/03/14","12:00",0.0,19.9,55.5,1017.1,135.6,1.3,3.3,118.4,0.53,10.8,13.4,"11:50:16",1
"18/03/14","12:10",0.0,20.2,54.9,1016.8,147.1,1.7,4.0,106.3,0.55,10.9,13.8,"12:01:04",1
"18/03/14","12:20",0.0,20.3,55.7,1016.4,186.5,1.5,4.2,230.0,0.39,11.2,14.0,"12:13:04",1
"18/03/14","12:30",0.0,20.5,53.1,1015.9,147.3,2.0,3.9,154.3,0.51,10.7,14.2,"12:25:04",1
"18/03/14","12:40",0.0,19.7,53.8,1015.9,171.6,2.3,4.1,187.5,0.26,10.1,14.3,"12:38:48",1
"18/03/14","12:50",0.0,20.1,55.0,1016.1,147.0,1.5,3.5,143.2,0.23,10.8,14.3,"12:48:32",1
"18/03/14","13:00",0.0,21.4,53.5,1015.6,135.2,1.7,4.9,126.3,0.49,11.6,14.5,"12:50:02",1
"18/03/14","13:10",0.0,20.7,51.3,1015.4,71.3,1.7,4.0,127.5,0.35,10.3,14.6,"13:00:08",1
"18/03/14","13:20",0.0,20.5,51.3,1015.4,107.5,2.5,8.3,200.4,0.31,10.2,14.8,"13:17:36",1
"18/03/14","13:30",0.0,21.2,49.6,1015.2,325.2,1.3,3.4,328.6,0.27,10.3,15.0,"13:22:32",1
"18/03/14","13:40",0.0,21.4,48.9,1015.2,153.1,3.2,6.6,125.5,0.50,10.3,14.7,"13:38:40",1
"18/03/14","13:50",0.0,21.8,44.7,1014.5,161.3,2.3,4.7,164.9,0.46,9.3,15.0,"13:48:24",1
"18/03/14","14:00",0.0,22.1,44.7,1014.2,183.9,2.6,4.8,187.3,0.44,9.6,15.1,"13:54:48",1
"18/03/14","14:10",0.0,21.9,48.8,1014.7,221.6,2.3,4.9,176.9,0.43,10.7,15.2,"14:04:48",1
"18/03/14","14:20",0.0,22.0,47.5,1014.5,195.7,2.7,5.1,217.3,0.44,10.4,15.2,"14:18:32",1
"18/03/14","14:30",0.0,21.6,46.0,1014.0,258.4,1.2,4.1,159.8,0.37,9.5,15.3,"14:26:08",1
"18/03/14","14:40",0.0,22.2,47.0,1014.5,208.8,2.5,5.4,157.2,0.41,10.4,15.3,"14:36:32",1
"18/03/14","14:50",0.0,21.5,47.4,1014.5,194.2,3.7,6.7,192.4,0.21,9.9,15.3,"14:44:16",1
"18/03/14","15:00",0.0,21.9,45.1,1014.5,189.2,3.6,6.0,199.6,0.37,9.5,15.5,"14:54:40",1
"18/03/14","15:10",0.0,22.0,44.8,1014.2,169.2,3.1,5.5,137.3,0.35,9.5,15.5,"15:00:08",1
"18/03/14","15:20",0.0,22.0,44.4,1014.0,178.2,2.8,5.2,154.0,0.32,9.4,15.5,"15:12:56",1
"18/03/14","15:30",0.0,22.1,42.2,1014.0,180.6,2.7,6.6,134.5,0.29,8.7,15.3,"15:23:20",1
"18/03/14","15:40",0.0,21.9,43.4,1014.0,218.7,2.6,5.7,200.4,0.27,8.9,15.5,"15:36:16",1
"18/03/14","15:50",0.0,21.8,44.1,1014.2,230.4,1.8,5.8,207.6,0.25,9.1,15.6,"15:43:52",1
"18/03/14","16:00",0.0,21.9,40.1,1014.2,266.0,1.8,4.3,229.3,0.22,7.8,15.7,"15:50:48",1
"18/03/14","16:10",0.0,22.0,40.2,1013.8,263.8,1.5,3.2,291.1,0.19,7.9,15.3,"16:01:20",1
"18/03/14","16:20",0.0,21.9,40.8,1014.0,256.1,2.2,3.7,233.7,0.17,8.0,15.4,"16:11:04",1
"18/03/14","16:30",0.0,21.4,41.2,1014.2,233.5,2.3,5.5,222.8,0.14,7.7,15.3,"16:24:24",1
"18/03/14","16:40",0.0,21.4,41.0,1014.2,233.4,2.8,5.8,230.9,0.12,7.7,15.4,"16:31:12",1
"18/03/14","16:50",0.0,21.1,41.3,1014.7,223.7,2.7,5.7,226.6,0.10,7.5,15.2,"16:41:12",1
"18/03/14","17:00",0.0,20.9,41.1,1014.2,201.3,2.8,4.7,208.9,0.08,7.2,15.2,"16:50:40",1
"18/03/14","17:10",0.0,20.6,42.6,1014.5,215.6,2.0,4.2,229.3,0.05,7.5,15.1,"17:08:48",1
"18/03/14","17:20",0.0,20.3,41.7,1014.5,217.9,2.1,3.3,223.1,0.04,6.9,14.8,"17:19:36",1
"18/03/14","17:30",0.0,20.1,41.1,1014.9,212.2,1.7,3.5,194.8,0.02,6.5,14.8,"17:22:00",1
"18/03/14","17:40",0.0,19.9,42.3,1014.9,262.7,1.6,2.8,229.8,0.00,6.8,14.8,"17:30:24",1
"18/03/14","17:50",0.0,18.9,44.3,1015.2,300.4,0.7,1.7,257.5,0.00,6.5,14.3,"17:49:44",1
"18/03/14","18:00",0.0,18.5,44.2,1015.2,287.5,1.1,2.1,319.1,0.00,6.1,14.5,"17:58:00",1
"18/03/14","18:10",0.0,17.5,47.6,1015.2,278.2,1.1,1.8,309.8,0.00,6.3,14.3,"18:05:20",1
"18/03/14","18:20",0.0,16.5,51.1,1015.2,300.2,1.0,1.3,336.5,0.00,6.4,14.1,"18:12:08",1
"18/03/14","18:30",0.0,15.6,53.2,1015.4,292.0,1.1,1.7,321.3,0.00,6.2,13.7,"18:20:24",1
"18/03/14","18:40",0.0,15.1,53.8,1015.6,297.7,1.3,2.2,326.4,0.00,5.9,13.8,"18:38:00",1
"18/03/14","18:50",0.0,14.5,55.0,1015.6,304.3,1.6,2.9,337.3,0.00,5.6,13.6,"18:45:04",1
"18/03/14","19:00",0.0,14.1,56.5,1015.4,309.8,1.7,2.8,322.8,0.00,5.6,13.4,"18:52:16",1
"18/03/14","19:10",0.0,13.4,58.5,1015.9,289.4,1.1,2.2,318.1,0.00,5.5,13.2,"19:01:04",1
"18/03/14","19:20",0.0,13.0,62.1,1015.6,312.7,1.1,1.7,320.1,0.00,6.0,13.1,"19:15:58",1
"18/03/14","19:30",0.0,12.4,62.5,1015.9,297.3,1.2,1.7,306.3,0.00,5.5,12.8,"19:26:46",1
"18/03/14","19:40",0.0,12.6,61.8,1016.1,299.6,1.7,2.5,306.7,0.00,5.5,12.9,"19:34:50",1
"18/03/14","19:50",0.0,12.6,61.5,1016.1,299.2,1.7,2.8,321.0,0.00,5.4,12.5,"19:44:12",1
"18/03/14","20:00",0.0,12.4,61.9,1016.4,291.9,1.8,2.6,298.1,0.00,5.3,12.5,"19:51:22",1
"18/03/14","20:10",0.0,12.2,62.4,1016.4,294.5,1.7,2.9,330.5,0.00,5.3,12.4,"20:00:30",1
"18/03/14","20:20",0.0,11.9,64.1,1016.1,289.5,1.7,2.2,264.2,0.00,5.4,12.2,"20:13:44",1
"18/03/14","20:30",0.0,11.7,64.7,1016.6,305.6,1.7,2.2,298.3,0.00,5.3,12.1,"20:27:50",1
"18/03/14","20:40",0.0,11.3,66.3,1016.4,298.1,1.6,2.1,316.1,0.00,5.3,11.9,"20:37:06",1
"18/03/14","20:50",0.0,11.1,66.7,1016.6,299.6,1.6,2.2,327.0,0.00,5.2,12.0,"20:42:26",1
"18/03/14","21:00",0.0,10.9,67.9,1016.6,307.2,0.7,1.9,306.9,0.00,5.3,11.8,"20:59:58",1
"18/03/14","21:10",0.0,10.7,68.0,1016.8,322.7,1.7,2.5,320.3,0.00,5.1,11.7,"21:08:26",1
"18/03/14","21:20",0.0,10.1,71.3,1016.4,321.7,1.7,2.2,328.0,0.00,5.2,11.6,"21:10:16",1
"18/03/14","21:30",0.0,9.7,73.6,1016.1,304.2,1.6,1.9,315.6,0.00,5.3,11.6,"21:21:28",1
"18/03/14","21:40",0.0,10.1,72.4,1016.6,297.8,2.0,2.7,315.3,0.00,5.4,11.5,"21:33:06",1
"18/03/14","21:50",0.0,10.0,70.0,1016.8,295.8,1.7,2.7,316.6,0.00,4.8,11.4,"21:48:22",1
"18/03/14","22:00",0.0,10.0,72.6,1016.6,316.2,1.5,2.4,305.9,0.00,5.3,11.2,"21:51:22",1
"18/03/14","22:10",0.0,9.9,71.5,1016.8,288.9,1.7,2.4,300.8,0.00,5.0,11.1,"22:08:44",1
"18/03/14","22:20",0.0,10.1,71.7,1016.4,303.6,1.7,2.1,318.7,0.00,5.3,11.1,"22:15:38",1
"18/03/14","22:30",0.0,9.9,71.1,1016.4,19.9,1.1,2.2,331.9,0.00,5.0,10.8,"22:29:18",1
"18/03/14","22:40",0.0,9.3,74.2,1016.1,327.2,2.0,2.9,337.0,0.00,5.0,10.9,"22:35:36",1
"18/03/14","22:50",0.0,9.1,75.6,1016.6,319.9,1.3,2.6,321.2,0.00,5.1,10.8,"22:43:20",1
"18/03/14","23:00",0.0,9.2,75.9,1016.4,323.1,1.6,2.2,314.3,0.00,5.2,10.6,"22:55:20",1
"18/03/14","23:10",0.0,9.0,76.5,1016.6,316.9,1.5,2.0,344.6,0.00,5.1,10.6,"23:07:06",1
"18/03/14","23:20",0.0,9.0,77.3,1016.6,302.1,1.6,2.5,302.2,0.00,5.3,10.6,"23:14:24",1
"18/03/14","23:30",0.0,8.9,77.7,1016.4,330.7,1.3,2.6,322.4,0.00,5.3,10.6,"23:27:54",1
"18/03/14","23:40",0.0,8.3,80.0,1016.4,298.6,1.6,2.4,339.5,0.00,5.1,10.6,"23:35:44",1
"18/03/14","23:50",0.0,8.1,81.0,1016.6,305.0,1.3,2.6,315.2,0.00,5.1,10.5,"23:49:52",1
"18/03/14","24:00",0.0,8.1,82.1,1016.4,324.6,1.7,2.4,315.8,0.00,5.3,10.2,"23:50:08",1
